Location: Newark
(48.5667°N, 12.8167°E)
Time: 14:34:41
(UTC+00:00)

METEOR M2 - Pass Details

Date: 22 November 2019
Orbit: 818 x 828 km, 98.5° (Epoch: 04 December)

Event Time Altitude Azimuth Distance (km) Brightness Sun altitude
Exits shadow 18:57:15 16° 345° (NNW) 2,030 ? -35.1°
Drops below altitude 10° 18:58:18 10° 345° (NNW) 2,434 ? -35.3°
Sets 19:00:39 0° 346° (NNW) 3,370 ? -35.6°
